Longmont, CO

7:07 AM MST on February 20, 2017 (GMT -0700)
Lemoore (Abandoned) Willett A

Weather History for KLMO - August, 2014

Change the Weather History Date:

Saturday, August 9, 2014

  Actual Average (KBJC) Record (KBJC)
Temperature  
Mean Temperature 73 °F -  
Max Temperature 91 °F 83 °F 96 °F (1992)
Min Temperature 55 °F 59 °F 53 °F (1986)
Cooling Degree Days 8    
Growing Degree Days 23 (Base 50)    
Moisture  
Dew Point 50 °F    
Average Humidity 53    
Maximum Humidity 81    
Minimum Humidity 17    
Precipitation  
Precipitation 0.00 in - - ()
Sea Level Pressure  
Sea Level Pressure 30.15 in    
Wind  
Wind Speed 4 mph (NNW)    
Max Wind Speed 14 mph    
Max Gust Speed 21 mph    
Visibility 10 miles    
Events Rain    
Averages and records for this station are not official NWS values.
T = Trace of Precipitation, MM = Missing Value Source: NWS Daily Summary

Daily Weather History Graph

Daily Weather History Graph

Search for Another Location

Airport or City:

Trip Planner

Search our weather history database for the weather conditions in past years. The results will help you decide how hot, cold, wet, or windy it might be!

Date:

Astronomy

Aug. 09, 2014 Rise Set
Actual Time 6:06 AM MDT 8:05 PM MDT
Civil Twilight 5:36 AM MDT 8:34 PM MDT
Nautical Twilight 5:00 AM MDT 9:10 PM MDT
Astronomical Twilight 4:21 AM MDT 9:49 PM MDT
Moon 7:08 PM MDT (8/9) 4:49 AM MDT (8/9)
Length of Visible Light 14h 58m
Length of Day
13h 59m
Waxing Gibbous, 98% of the Moon is Illuminated
Aug 9
Waxing Gibbous
Aug 10
Full
Aug 17
Last Quarter
Aug 25
New
Sep 2
First Quarter

Hourly Weather History & Observations

Time (MDT) Temp. Dew Point Humidity Pressure Visibility Wind Dir Wind Speed Gust Speed Precip Events Conditions
12:14 AM 61.9 °F 53.1 °F 73% 30.11 in 7.0 mi West 4.6 mph - N/A   Clear
12:34 AM 59.9 °F 52.0 °F 75% 30.11 in 10.0 mi WSW 4.6 mph - N/A   Clear
12:54 AM 60.6 °F 51.1 °F 71% 30.11 in 10.0 mi West 4.6 mph - N/A   Clear
1:14 AM 59.0 °F 51.4 °F 76% 30.10 in 10.0 mi South 3.5 mph - N/A   Clear
1:34 AM 61.0 °F 50.7 °F 69% 30.09 in 10.0 mi WSW 3.5 mph - N/A   Clear
1:54 AM 59.0 °F 51.1 °F 75% 30.10 in 10.0 mi Calm Calm - N/A   Clear
2:14 AM 59.2 °F 51.3 °F 75% 30.09 in 10.0 mi Calm Calm - N/A   Clear
2:34 AM 59.0 °F 51.1 °F 75% 30.09 in 10.0 mi Calm Calm - N/A   Clear
2:54 AM 57.2 °F 50.7 °F 79% 30.09 in 7.0 mi SW 4.6 mph - N/A   Clear
3:14 AM 57.2 °F 51.4 °F 81% 30.09 in 10.0 mi Calm Calm - N/A   Clear
3:34 AM 56.7 °F 50.0 °F 78% 30.10 in 10.0 mi Calm Calm - N/A   Clear
3:54 AM 56.5 °F 49.3 °F 77% 30.11 in 10.0 mi Calm Calm - N/A   Clear
4:14 AM 56.8 °F 49.6 °F 77% 30.11 in 10.0 mi SSW 3.5 mph - N/A   Clear
4:34 AM 56.8 °F 51.1 °F 81% 30.11 in 10.0 mi North 3.5 mph - N/A   Clear
4:54 AM 56.3 °F 50.2 °F 80% 30.12 in 10.0 mi West 3.5 mph - N/A   Clear
5:14 AM 56.8 °F 50.2 °F 78% 30.12 in 10.0 mi West 4.6 mph - N/A   Clear
5:34 AM 55.4 °F 49.6 °F 81% 30.12 in 10.0 mi Calm Calm - N/A   Clear
5:54 AM 56.3 °F 50.0 °F 79% 30.12 in 7.0 mi WSW 3.5 mph - N/A   Clear
6:14 AM 55.9 °F 50.0 °F 80% 30.12 in 7.0 mi Calm Calm - N/A   Clear
6:34 AM 58.6 °F 50.2 °F 73% 30.12 in 10.0 mi SSW 3.5 mph - N/A   Clear
6:54 AM 59.4 °F 51.4 °F 75% 30.13 in 10.0 mi Calm Calm - N/A   Clear
7:14 AM 61.3 °F 51.1 °F 69% 30.13 in 10.0 mi West 3.5 mph - N/A   Clear
7:34 AM 64.6 °F 52.7 °F 65% 30.13 in 10.0 mi Calm Calm - N/A   Clear
7:54 AM 66.7 °F 52.7 °F 61% 30.13 in 10.0 mi Calm Calm - N/A   Clear
8:14 AM 70.9 °F 51.4 °F 50% 30.13 in 10.0 mi Calm Calm - N/A   Clear
8:34 AM 73.2 °F 50.7 °F 45% 30.14 in 10.0 mi Calm Calm - N/A   Clear
8:54 AM 74.5 °F 51.3 °F 44% 30.13 in 10.0 mi Calm Calm - N/A   Clear
9:14 AM 76.8 °F 52.3 °F 42% 30.13 in 10.0 mi Calm Calm - N/A   Clear
9:34 AM 79.7 °F 49.3 °F 34% 30.13 in 10.0 mi East 3.5 mph - N/A   Clear
9:54 AM 81.0 °F 49.3 °F 33% 30.13 in 10.0 mi East 4.6 mph - N/A   Clear
10:14 AM 83.1 °F 48.6 °F 30% 30.14 in 10.0 mi Calm Calm - N/A   Clear
10:34 AM 83.8 °F 46.2 °F 27% 30.14 in 10.0 mi SE 3.5 mph - N/A   Clear
11:14 AM 85.6 °F 46.2 °F 25% 30.14 in 10.0 mi SE 4.6 mph - N/A   Clear
11:34 AM 87.8 °F 43.0 °F 21% 30.14 in 10.0 mi East 4.6 mph - N/A   Clear
11:54 AM 88.2 °F 45.7 °F 23% 30.13 in 10.0 mi ESE 8.1 mph - N/A   Clear
12:14 PM 88.5 °F 40.8 °F 19% 30.13 in 10.0 mi East 6.9 mph - N/A   Clear
12:34 PM 91.0 °F 41.0 °F 17% 30.12 in 10.0 mi NE 8.1 mph - N/A   Clear
12:54 PM 90.7 °F 40.8 °F 17% 30.12 in 10.0 mi WNW 3.5 mph - N/A   Scattered Clouds
1:14 PM 89.4 °F 39.7 °F 17% 30.13 in 10.0 mi NNW 13.8 mph 20.7 mph N/A   Scattered Clouds
1:34 PM 84.2 °F 39.9 °F 21% 30.13 in 10.0 mi North 6.9 mph 11.5 mph N/A   Scattered Clouds
1:54 PM 85.1 °F 40.8 °F 21% 30.13 in 10.0 mi NE 5.8 mph - N/A   Scattered Clouds
2:14 PM 88.9 °F 45.7 °F 22% 30.13 in 10.0 mi NE 9.2 mph - N/A   Scattered Clouds
2:54 PM 82.0 °F 44.2 °F 26% 30.13 in 10.0 mi North 5.8 mph - N/A   Scattered Clouds
3:14 PM 86.4 °F 45.7 °F 24% 30.13 in 10.0 mi ENE 10.4 mph - N/A   Clear
3:54 PM 83.5 °F 43.9 °F 25% 30.15 in 10.0 mi NNE 13.8 mph - N/A   Scattered Clouds
4:14 PM 81.7 °F 44.6 °F 27% 30.16 in 10.0 mi ENE 6.9 mph - N/A   Scattered Clouds
4:34 PM 80.6 °F 47.3 °F 31% 30.18 in 10.0 mi Calm Calm - N/A   Mostly Cloudy
4:54 PM 77.4 °F 48.2 °F 36% 30.20 in 10.0 mi NNW 10.4 mph 18.4 mph N/A Rain Light Rain
5:14 PM 73.0 °F 51.8 °F 47% 30.19 in 10.0 mi ENE 5.8 mph - N/A Rain Light Rain
5:34 PM 74.8 °F 49.6 °F 41% 30.19 in 10.0 mi ESE 11.5 mph 16.1 mph N/A   Scattered Clouds
5:54 PM 74.8 °F 51.8 °F 44% 30.19 in 10.0 mi SE 6.9 mph - N/A   Scattered Clouds
6:14 PM 77.9 °F 51.6 °F 40% 30.19 in 10.0 mi SSE 5.8 mph - N/A   Clear
6:34 PM 75.7 °F 53.4 °F 46% 30.19 in 10.0 mi SW 10.4 mph - N/A   Clear
6:54 PM 75.4 °F 52.0 °F 44% 30.20 in 10.0 mi Calm Calm - N/A   Clear
7:14 PM 73.6 °F 53.6 °F 50% 30.20 in 10.0 mi SW 3.5 mph - N/A   Clear
7:54 PM 72.5 °F 54.1 °F 52% 30.21 in 10.0 mi ENE 3.5 mph - N/A   Mostly Cloudy
8:14 PM 70.9 °F 55.9 °F 59% 30.22 in 10.0 mi Calm Calm - N/A   Mostly Cloudy
8:34 PM 68.4 °F 57.9 °F 69% 30.23 in 10.0 mi North 4.6 mph - N/A   Scattered Clouds
8:54 PM 69.8 °F 54.1 °F 57% 30.24 in 10.0 mi North 5.8 mph - N/A   Scattered Clouds
9:34 PM 68.0 °F 50.5 °F 54% 30.25 in 10.0 mi North 4.6 mph - N/A   Clear
9:54 PM 66.4 °F 52.0 °F 60% 30.26 in 7.0 mi Calm Calm - N/A   Scattered Clouds
10:14 PM 65.8 °F 51.1 °F 59% 30.26 in 10.0 mi NW 4.6 mph - N/A   Scattered Clouds
10:34 PM 66.0 °F 50.7 °F 58% 30.27 in 10.0 mi Calm Calm - N/A   Clear
10:54 PM 63.5 °F 51.8 °F 66% 30.27 in 10.0 mi WNW 3.5 mph - N/A   Clear
11:14 PM 61.7 °F 52.2 °F 71% 30.27 in 10.0 mi SW 4.6 mph - N/A   Clear
11:34 PM 62.6 °F 52.7 °F 70% 30.27 in 7.0 mi SW 3.5 mph - N/A   Clear
11:54 PM 61.9 °F 52.7 °F 72% 30.28 in 10.0 mi Calm Calm - N/A   Clear